Find Starlink 30502

NORAD ID: 57973 Int'l Des: 2023-151 Owner: SPXS Country: US Constellation: starlink operational
LEOCIRCULAR

リアルタイム位置

3D地球を読み込み中...

Starlink 30502について

説明を読み込み中...

次回通過

Passes for default location (London). Set your location on the main map for personalized predictions.

高度履歴

Loading altitude history...

軌道要素

1 57973U 23151K 26123.13199097 -.00001230 00000-0 -35190-4 0 9996
2 57973 43.0062 28.4476 0001384 277.6703 82.3991 15.27579096144098
Epoch: May 3, 2026 • Age: 12 hours

現在のステータス

高度 484.3 km
速度 7.62 km/s
衛星直下点 -8.65°S, 128.59°E
打ち上げ日 Sep 30, 2023
運用期間 2.5 years
タイプ internet

技術仕様

分類 Payload
質量 730.00 kg
乾燥質量 700.00 kg
総質量 730.00 kg
長さ 0.30 m
直径 4.10 m
スパン 29.00 m
形状 Box + pan
製造者 SPXS
バスタイプ Starlink V2M
フェーズステータス In Orbit
所有者/国 SPXS/US

Most Searched